Home   Weather   Houston   Past weeks

Flag for USA Past Weather in Houston, Texas, USA — Yesterday and Last 2 Weeks

Now
70 °F

Light rain. Broken clouds.


Feels Like: 64 °F
Forecast: 69 / 78 °F
Wind: No wind

Location: Houston Hobby Airport

Current Time: Mar 29, 2017 at 3:54:57 pm

Latest Report: Mar 29, 2017 at 2:53 pm


Visibility: 7 mi

Pressure: 29.75 "Hg

Humidity: 97%

Dew Point: 69 °F

Location of HoustonLocation

Past Weather in Houston — Graph

°F

Houston Temperature Yesterday

Maximum temperature yesterday: 83 °F (at 2:53 pm)
Minimum temperature yesterday: 71 °F (at 12:53 am)
Average temperature yesterday: 76 °F

High & Low Weather Summary for the Past Weeks

 TemperatureHumidityPressure
High84 °F (Mar 20, 3:53 pm)100% (Mar 18, 5:53 am)30.38 "Hg (Mar 18, 5:53 am)
Low49 °F (Mar 15, 3:53 am)30% (Mar 14, 3:53 pm)29.73 "Hg (Mar 29, 3:53 am)
Average71 °F79%30.08 "Hg
* Reported Mar 14 2:53 pm — Mar 29 2:17 pm, Houston, Weather by CustomWeather, © 2017

Note: Actual official high and low records may vary slightly from our data, if they occured in-between our weather recording intervals... More about our weather records

Advertising

Houston Weather History for the Previous 24 Hours

Scroll right to see more
 ConditionsComfort  
Time TempWeatherWind HumidityBarometerVisibility
2:17 pm
Wed, Mar 29
71 °FStrong thunderstorms. Fog.5 mph87%29.76 "Hg6 mi
2:07 pm71 °FStrong thunderstorms. Fog.14 mph87%29.77 "Hg2 mi
2:01 pm71 °FStrong thunderstorms. Fog.10 mph87%29.76 "Hg3 mi
1:31 pm72 °FStrong thunderstorms. Fog.10 mph93%29.77 "Hg1 mi
12:53 pm72 °FLight rain. Mostly cloudy.7 mph91%29.78 "Hg7 mi
12:21 pm70 °FLight rain. Mostly cloudy.7 mph93%29.82 "Hg10 mi
12:00 pm70 °FLight rain. Mostly cloudy.14 mph90%29.78 "Hg10 mi
11:37 am69 °FThunderstorms. Fog.5 mph93%29.83 "Hg5 mi
11:23 am70 °FStrong thunderstorms. Fog.12 mph87%29.84 "Hg2 mi
10:53 am74 °FThunderstorms. Mostly cloudy.15 mph82%29.81 "Hg7 mi
9:53 am75 °FCloudy.13 mph76%29.81 "Hg10 mi
8:53 am75 °FBroken clouds.10 mph79%29.82 "Hg10 mi
7:53 am72 °FScattered clouds.6 mph87%29.81 "Hg10 mi
6:53 am72 °FPassing clouds.5 mph84%29.82 "Hg10 mi
5:53 am72 °FPartly cloudy.3 mph84%29.80 "Hg10 mi
4:53 am74 °FPassing clouds.6 mph82%29.79 "Hg10 mi
3:53 am74 °FMostly cloudy.15 mph82%29.73 "Hg10 mi
2:53 am74 °FPassing clouds.14 mph82%29.74 "Hg10 mi
1:53 am74 °FPassing clouds.15 mph82%29.75 "Hg10 mi
12:53 am74 °FPassing clouds.18 mph82%29.74 "Hg10 mi
11:53 pm
Tue, Mar 28
74 °FPassing clouds.17 mph85%29.75 "Hg10 mi
10:53 pm75 °FPassing clouds.17 mph82%29.78 "Hg10 mi
9:53 pm75 °FOvercast.18 mph82%29.80 "Hg10 mi
9:41 pm75 °FMostly cloudy.14 mph82%29.78 "Hg10 mi
8:53 pm75 °FOvercast.14 mph82%29.79 "Hg10 mi
7:53 pm76 °FMostly cloudy.15 mph80%29.80 "Hg10 mi
6:53 pm76 °FMostly cloudy.13 mph80%29.79 "Hg10 mi
5:53 pm77 °FPartly sunny.18 mph77%29.78 "Hg10 mi
4:53 pm79 °FPartly sunny.22 mph67%29.79 "Hg10 mi
3:53 pm82 °FScattered clouds.16 mph60%29.81 "Hg10 mi
Weather by CustomWeather, © 2017

See weather overviewHow to use our weather pages